THY2XQ LTFM-LGAV

Flight info

Callsign THY2XQ
Flight time 0h 53m
Altitude 32000
Route IVGUS1D/35L IVGUS UY226 BIG UN604 OGSIL
Aircraft B77W/H-SDE1E2E3FGHIJ2J3J4J5M1RWXY/LB1D1

Departure

Time 2026-05-04 17:32
Airport İstanbul Airport (LTFM)

Arrival

Time 2026-05-04 18:25
Airport Athens Eleftherios Venizelos International Airport (LGAV)
Time Latitude Longitude Altitude Speed Heading
2026-05-04 16:55 41.26538 28.74118 318 ft 0 kts 90°
2026-05-04 17:23 41.26541 28.74057 315 ft 4 kts 113°
2026-05-04 17:24 41.26556 28.74030 316 ft 4 kts 148°
2026-05-04 17:24 41.26631 28.74018 315 ft 1 kts 179°
2026-05-04 17:25 41.26632 28.74018 315 ft 0 kts 179°
2026-05-04 17:27 41.26603 28.74018 318 ft 6 kts 180°
2026-05-04 17:27 41.26612 28.73881 318 ft 13 kts 353°
2026-05-04 17:28 41.26869 28.73834 318 ft 16 kts 294°
2026-05-04 17:29 41.26870 28.73378 318 ft 19 kts 269°
2026-05-04 17:29 41.26736 28.72989 316 ft 14 kts 184°
2026-05-04 17:30 41.26363 28.72999 317 ft 22 kts 180°
2026-05-04 17:31 41.26217 28.72825 319 ft 21 kts 268°
2026-05-04 17:31 41.26622 28.72518 318 ft 65 kts 359°
2026-05-04 17:32 41.28944 28.72485 1814 ft 211 kts 359°
2026-05-04 17:33 41.33498 28.72240 4949 ft 222 kts 356°
2026-05-04 17:33 41.34989 28.72063 6320 ft 208 kts 346°
2026-05-04 17:34 41.38615 28.68495 8267 ft 245 kts 320°
2026-05-04 17:34 41.39411 28.66360 9011 ft 277 kts 285°
2026-05-04 17:35 41.38404 28.58076 10561 ft 348 kts 249°
2026-05-04 17:35 41.34319 28.53856 11684 ft 403 kts 192°
2026-05-04 17:35 41.31528 28.53809 12893 ft 401 kts 166°
2026-05-04 17:36 41.28848 28.54701 13955 ft 399 kts 165°
2026-05-04 17:36 41.26066 28.55272 14828 ft 408 kts 174°
2026-05-04 17:36 41.23208 28.54890 15571 ft 422 kts 197°
2026-05-04 17:36 41.20476 28.53436 16569 ft 425 kts 204°
2026-05-04 17:37 41.17740 28.51861 17595 ft 432 kts 203°
2026-05-04 17:37 41.14934 28.50337 18591 ft 438 kts 202°
2026-05-04 17:37 41.12064 28.48868 19426 ft 446 kts 200°
2026-05-04 17:37 41.09132 28.47413 20248 ft 454 kts 200°
2026-05-04 17:38 41.06144 28.45951 21073 ft 461 kts 199°
2026-05-04 17:38 41.03074 28.44787 21870 ft 468 kts 192°
2026-05-04 17:38 40.99869 28.43901 22695 ft 474 kts 189°
2026-05-04 17:38 40.96610 28.43002 23507 ft 481 kts 191°
2026-05-04 17:39 40.90338 28.39804 24654 ft 496 kts 219°
2026-05-04 17:39 40.87950 28.36545 25368 ft 494 kts 236°
2026-05-04 17:39 40.86146 28.32715 26338 ft 487 kts 246°
2026-05-04 17:40 40.85043 28.28529 27053 ft 482 kts 263°
2026-05-04 17:40 40.84594 28.24133 27630 ft 485 kts 268°
2026-05-04 17:40 40.84175 28.19665 28222 ft 492 kts 265°
2026-05-04 17:40 40.83597 28.15206 29065 ft 492 kts 263°
2026-05-04 17:41 40.82939 28.10843 30073 ft 488 kts 262°
2026-05-04 17:41 40.82251 28.06479 30943 ft 483 kts 262°
2026-05-04 17:41 40.81569 28.02134 31725 ft 481 kts 262°
2026-05-04 17:41 40.80900 27.97792 32084 ft 483 kts 262°
2026-05-04 17:42 40.79581 27.89121 32064 ft 480 kts 263°
2026-05-04 17:42 40.79033 27.80434 32053 ft 478 kts 266°
2026-05-04 17:43 40.78186 27.76151 32053 ft 489 kts 249°
2026-05-04 17:43 40.76379 27.72330 32051 ft 496 kts 228°
2026-05-04 17:43 40.73695 27.69484 32065 ft 497 kts 208°
2026-05-04 17:43 40.70622 27.67453 32075 ft 495 kts 205°
2026-05-04 17:44 40.64486 27.63282 32072 ft 496 kts 208°
2026-05-04 17:44 40.58476 27.58943 32064 ft 495 kts 208°
2026-05-04 17:45 40.52469 27.54539 32058 ft 492 kts 209°
2026-05-04 17:45 40.46524 27.50079 32062 ft 490 kts 209°
2026-05-04 17:46 40.40600 27.45653 32055 ft 488 kts 209°
2026-05-04 17:46 40.34733 27.41294 32058 ft 486 kts 209°
2026-05-04 17:47 40.28855 27.36928 32068 ft 485 kts 210°
2026-05-04 17:47 40.23296 27.31911 32071 ft 485 kts 216°
2026-05-04 17:48 40.17807 27.26754 32073 ft 487 kts 216°
2026-05-04 17:48 40.12252 27.21640 32069 ft 488 kts 215°
2026-05-04 17:49 40.06706 27.16552 32050 ft 489 kts 215°
2026-05-04 17:49 40.01097 27.11403 32067 ft 496 kts 215°
2026-05-04 17:50 39.95426 27.06206 32088 ft 501 kts 215°
2026-05-04 17:50 39.89689 27.00961 32069 ft 505 kts 215°
2026-05-04 17:51 39.83952 26.95724 32076 ft 507 kts 215°
2026-05-04 17:51 39.78167 26.90454 32070 ft 507 kts 215°
2026-05-04 17:52 39.72382 26.85201 32058 ft 506 kts 214°
2026-05-04 17:52 39.66610 26.79974 32070 ft 505 kts 214°
2026-05-04 17:53 39.60830 26.74748 32065 ft 504 kts 214°
2026-05-04 17:53 39.55113 26.69587 32070 ft 503 kts 214°
2026-05-04 17:54 39.49350 26.64396 32070 ft 504 kts 214°
2026-05-04 17:54 39.43584 26.59212 32078 ft 505 kts 214°
2026-05-04 17:55 39.37800 26.54021 32054 ft 505 kts 214°
2026-05-04 17:55 39.32025 26.48961 32063 ft 504 kts 210°
2026-05-04 17:56 39.25962 26.44424 32061 ft 504 kts 213°
2026-05-04 17:56 39.20636 26.38567 32085 ft 503 kts 227°
2026-05-04 17:57 39.16220 26.31574 32073 ft 503 kts 233°
2026-05-04 17:57 39.11890 26.24484 32057 ft 503 kts 232°
2026-05-04 17:58 39.07554 26.17509 32072 ft 501 kts 232°
2026-05-04 17:58 39.03157 26.10481 32075 ft 500 kts 232°
2026-05-04 17:59 38.98823 26.03562 32082 ft 500 kts 232°
2026-05-04 18:00 38.92258 25.93159 32067 ft 497 kts 232°
2026-05-04 18:00 38.87908 25.86292 32077 ft 494 kts 232°
2026-05-04 18:01 38.83576 25.79462 32081 ft 492 kts 232°
2026-05-04 18:01 38.79279 25.72699 32094 ft 491 kts 232°
2026-05-04 18:02 38.72801 25.62528 32077 ft 491 kts 232°
2026-05-04 18:02 38.68484 25.55770 32088 ft 489 kts 232°
2026-05-04 18:03 38.64162 25.49018 32097 ft 489 kts 232°
2026-05-04 18:03 38.59872 25.42328 32095 ft 489 kts 232°
2026-05-04 18:04 38.55557 25.35615 32094 ft 489 kts 232°
2026-05-04 18:05 38.49072 25.25552 32101 ft 487 kts 232°
2026-05-04 18:05 38.44756 25.18868 32090 ft 484 kts 232°
2026-05-04 18:05 38.42643 25.15603 32079 ft 469 kts 232°
2026-05-04 18:06 38.38596 25.09360 31842 ft 447 kts 232°
2026-05-04 18:06 38.36648 25.06355 31301 ft 445 kts 231°
2026-05-04 18:06 38.34674 25.03309 30641 ft 447 kts 231°
2026-05-04 18:07 38.32690 25.00251 30076 ft 446 kts 231°
2026-05-04 18:07 38.30731 24.97236 29668 ft 438 kts 231°
2026-05-04 18:07 38.28799 24.94265 29192 ft 433 kts 231°
2026-05-04 18:07 38.26882 24.91320 28675 ft 430 kts 231°
2026-05-04 18:08 38.25596 24.89344 28308 ft 428 kts 231°
2026-05-04 18:08 38.23700 24.86436 27778 ft 425 kts 231°
2026-05-04 18:08 38.21816 24.83546 27273 ft 423 kts 231°
2026-05-04 18:08 38.19948 24.80682 26785 ft 420 kts 231°
2026-05-04 18:09 38.16529 24.74893 25791 ft 399 kts 237°
2026-05-04 18:09 38.13472 24.69117 23691 ft 390 kts 238°
2026-05-04 18:10 38.11967 24.66262 22393 ft 387 kts 238°
2026-05-04 18:10 38.10475 24.63450 21229 ft 381 kts 238°
2026-05-04 18:10 38.08999 24.60687 20169 ft 374 kts 238°
2026-05-04 18:10 38.07546 24.57982 19154 ft 368 kts 238°
2026-05-04 18:11 38.06113 24.55320 18125 ft 362 kts 238°
2026-05-04 18:11 38.04702 24.52704 17127 ft 354 kts 238°
2026-05-04 18:11 38.03361 24.50229 16781 ft 330 kts 239°
2026-05-04 18:11 38.02074 24.47850 16417 ft 327 kts 239°
2026-05-04 18:12 38.00779 24.45452 16057 ft 334 kts 239°
2026-05-04 18:12 37.99438 24.42968 15678 ft 348 kts 239°
2026-05-04 18:12 37.98071 24.40438 15270 ft 355 kts 238°
2026-05-04 18:12 37.96668 24.37850 14845 ft 355 kts 238°
2026-05-04 18:13 37.95271 24.35280 14488 ft 352 kts 238°
2026-05-04 18:13 37.93886 24.32735 14138 ft 348 kts 238°
2026-05-04 18:13 37.91135 24.27678 13153 ft 349 kts 238°
2026-05-04 18:14 37.89751 24.25136 12633 ft 349 kts 238°
2026-05-04 18:14 37.88401 24.22663 12092 ft 334 kts 238°
2026-05-04 18:14 37.87081 24.20245 11609 ft 336 kts 238°
2026-05-04 18:15 37.84470 24.15462 11079 ft 328 kts 239°
2026-05-04 18:15 37.81892 24.10746 10308 ft 325 kts 239°
2026-05-04 18:15 37.80604 24.08391 9874 ft 325 kts 239°
2026-05-04 18:16 37.79316 24.06039 9400 ft 324 kts 239°
2026-05-04 18:16 37.78037 24.03705 9018 ft 321 kts 239°
2026-05-04 18:16 37.76778 24.01409 8845 ft 312 kts 239°
2026-05-04 18:17 37.74406 23.97101 8603 ft 282 kts 239°
2026-05-04 18:17 37.73316 23.95122 8352 ft 266 kts 240°
2026-05-04 18:17 37.71255 23.91364 7922 ft 267 kts 240°
2026-05-04 18:18 37.70177 23.89393 7442 ft 277 kts 240°
2026-05-04 18:18 37.69310 23.87264 6903 ft 270 kts 261°
2026-05-04 18:18 37.69060 23.84995 6383 ft 253 kts 272°
2026-05-04 18:18 37.69009 23.82819 5831 ft 244 kts 274°
2026-05-04 18:19 37.69167 23.78574 4744 ft 240 kts 292°
2026-05-04 18:19 37.70068 23.76869 4205 ft 231 kts 322°
2026-05-04 18:19 37.71487 23.76058 3639 ft 222 kts 349°
2026-05-04 18:20 37.72991 23.75817 3226 ft 212 kts 354°
2026-05-04 18:20 37.74427 23.75750 3053 ft 207 kts
2026-05-04 18:20 37.75758 23.76479 3024 ft 212 kts 31°
2026-05-04 18:20 37.77003 23.77525 2992 ft 216 kts 32°
2026-05-04 18:21 37.78216 23.78626 2991 ft 212 kts 34°
2026-05-04 18:21 37.79374 23.79719 2981 ft 204 kts 34°
2026-05-04 18:21 37.80502 23.80792 3021 ft 200 kts 34°
2026-05-04 18:21 37.81584 23.81824 2951 ft 192 kts 34°
2026-05-04 18:22 37.82641 23.82828 2693 ft 186 kts 34°
2026-05-04 18:22 37.83647 23.83785 2449 ft 181 kts 36°
2026-05-04 18:22 37.84640 23.84728 2194 ft 176 kts 36°
2026-05-04 18:22 37.85606 23.85647 1959 ft 170 kts 36°
2026-05-04 18:23 37.86543 23.86538 1732 ft 166 kts 36°
2026-05-04 18:23 37.87431 23.87384 1497 ft 153 kts 36°
2026-05-04 18:23 37.88251 23.88164 1309 ft 142 kts 37°
2026-05-04 18:23 37.89038 23.88912 1092 ft 143 kts 38°
2026-05-04 18:24 37.89831 23.89661 895 ft 142 kts 38°
2026-05-04 18:24 37.90622 23.90419 725 ft 143 kts 39°
2026-05-04 18:24 37.91418 23.91183 531 ft 143 kts 39°
2026-05-04 18:24 37.92208 23.91937 351 ft 142 kts 39°
2026-05-04 18:25 37.92970 23.92673 277 ft 128 kts 38°
2026-05-04 18:25 37.93533 23.93206 285 ft 76 kts 37°
2026-05-04 18:25 37.93836 23.93502 287 ft 28 kts 49°
2026-05-04 18:25 37.93922 23.93670 288 ft 19 kts 59°
2026-05-04 18:26 37.93913 23.93807 293 ft 18 kts 160°
2026-05-04 18:26 37.93824 23.93756 288 ft 11 kts 217°
2026-05-04 18:26 37.93758 23.93694 287 ft 13 kts 217°
2026-05-04 18:26 37.93683 23.93624 286 ft 14 kts 217°
2026-05-04 18:27 37.93600 23.93546 286 ft 16 kts 216°
2026-05-04 18:27 37.93528 23.93475 285 ft 11 kts 219°
2026-05-04 18:27 37.93460 23.93408 285 ft 13 kts 218°
2026-05-04 18:27 37.93448 23.93401 284 ft 4 kts 196°
2026-05-04 18:28 37.93427 23.93408 284 ft 9 kts 150°
2026-05-04 18:28 37.93367 23.93532 285 ft 19 kts 120°
2026-05-04 18:28 37.93294 23.93666 286 ft 19 kts 129°
2026-05-04 18:28 37.93220 23.93790 287 ft 17 kts 127°
2026-05-04 18:29 37.93161 23.93888 292 ft 13 kts 127°
2026-05-04 18:29 37.93107 23.93978 295 ft 13 kts 127°
2026-05-04 18:29 37.93053 23.94069 296 ft 13 kts 127°
2026-05-04 18:29 37.92999 23.94159 296 ft 13 kts 127°
2026-05-04 18:30 37.92893 23.94340 298 ft 13 kts 119°
2026-05-04 18:30 37.92922 23.94439 298 ft 14 kts 43°
2026-05-04 18:30 37.93001 23.94518 297 ft 15 kts 37°
2026-05-04 18:31 37.93096 23.94581 292 ft 16 kts 14°
2026-05-04 18:31 37.93208 23.94612 295 ft 17 kts 24°
2026-05-04 18:31 37.93265 23.94661 295 ft 1 kts 33°
2026-05-04 18:31 37.93277 23.94670 295 ft 3 kts 30°
2026-05-04 18:32 37.93301 23.94688 293 ft 5 kts 31°
2026-05-04 18:32 37.93347 23.94729 296 ft 14 kts 35°
2026-05-04 18:32 37.93411 23.94787 294 ft 12 kts 39°
2026-05-04 18:32 37.93488 23.94808 291 ft 11 kts 313°
2026-05-04 18:33 37.93500 23.94783 293 ft 1 kts 298°
2026-05-04 18:33 37.93506 23.94771 293 ft 3 kts 302°
2026-05-04 18:33 37.93511 23.94760 294 ft 0 kts 301°